Date of Measurement,Time,Ammonium-nitrogen,Total oxidised nitrogen,Nitrate-nitrogen,Nitrite-nitrogen,Suspended solids,Soluble reactive phosphorus,Dissolved organic carbon,Total phosphorus
Date,Time,Ammonium-nitrogen,Total oxidised nitrogen,Nitrate-nitrogen,Nitrite-nitrogen,Suspended solids,Soluble reactive phosphorus,Dissolved organic carbon,Total phosphorus
Units: Year month day,Units: Hour minute second,Units: milligrams per litre,Units: milligrams per litre,Units: milligrams per litre,Units: milligrams per litre,Units: milligrams per litre,Units: milligrams per litre,Units: milligrams per litre,Units: milligrams per litre
2012-06-21,23:16:00,< .03,1.07,1.06,0.0107,12.9,0.119,11.5,0.211
2012-06-22,00:16:00,0.307,3.41,3.12,0.29,11.5,0.379,14.7,0.55
2012-06-22,01:16:00,< .03,2.07,2.07,0.0046,5.47,0.201,11.2,0.276
2012-06-22,02:16:00,< .03,1.96,1.95,0.0051,7.02,0.186,9.87,0.254
2012-06-22,03:16:00,< .03,1.74,1.73,0.0062,10.7,0.179,11.2,0.251
2012-06-22,04:16:00,0.196,1.88,1.82,0.059,22.1,0.26,14.2,0.398
2012-06-22,05:16:00,1.16,3.21,3.12,0.086,44.4,0.796,15.5,1.08
2012-06-22,06:16:00,1.52,4.63,4.53,0.0994,68.9,1.65,19.1,1.98
2012-06-22,07:16:00,1.21,3.9,3.81,0.0894,51.3,1.48,20.2,1.81
2012-06-22,08:16:00,1.23,4.06,3.98,0.0813,47.3,1.41,19.9,1.71
2012-06-22,09:16:00,1.07,3.52,3.44,0.0768,36.9,1.36,19.3,1.62
2012-06-22,10:16:00,1.18,3.32,3.24,0.0789,33.8,1.31,20.2,1.56
2012-06-22,11:16:00,1.14,3.38,3.31,0.0749,35.6,1.27,21.2,1.52
2012-06-22,12:16:00,1.38,3.76,3.68,0.0785,54,1.4,19.2,1.67
2012-06-22,13:16:00,1.23,3.33,3.26,0.0746,51.3,1.38,16.7,1.62
2012-06-22,14:16:00,1.18,2.49,2.44,0.0474,51.4,1.3,18.7,1.58
2012-06-22,15:16:00,0.983,2.09,2.05,0.0442,31.9,1.18,9.38,1.42
2012-06-22,16:16:00,0.846,1.77,1.73,0.039,28,1.09,19.6,1.33
2012-06-22,17:16:00,0.733,1.59,1.55,0.0356,27.3,1.02,22.1,1.26
2012-06-22,18:16:00,0.725,1.49,1.46,0.0297,26.6,0.958,20.8,1.19
2012-06-22,19:16:00,0.688,1.31,1.28,0.0285,21.1,0.916,21.2,1.14
2012-06-22,20:16:00,0.635,1.2,1.17,0.028,27.1,0.885,21.1,1.11
2012-06-22,21:16:00,0.582,1.12,1.09,0.0312,22.9,0.858,22.8,1.08
2012-06-22,22:16:00,0.517,0.95,0.926,0.0236,22.6,0.81,20.2,1.03
2012-08-15,16:45:00,0.664,0.27,0.163,0.107,865,0.503,17.6,3.6
2012-08-15,17:45:00,5.28,1.99,1.76,0.234,325,0.636,28.5,2.65
2012-08-15,18:45:00,2.1,2.16,2.06,0.0953,173,0.6,24.3,1.79
2012-08-15,19:45:00,0.944,2.31,2.22,0.0898,141,0.373,25.2,1.17
2012-08-15,20:45:00,0.651,2.49,2.39,0.0954,73.3,0.27,28,0.76
2012-08-15,21:45:00,0.59,2.27,2.18,0.0908,48.6,0.219,19.5,0.584
2012-08-15,22:45:00,0.519,2.06,1.97,0.0918,34.5,0.177,18.9,0.463
2012-08-15,23:45:00,0.468,1.77,1.69,0.0827,29.2,0.157,19.2,0.401
2012-08-16,00:45:00,0.415,1.75,1.66,0.0863,25.2,0.136,16.8,0.369
2012-08-16,01:45:00,0.369,1.59,1.51,0.0806,20,0.113,18,0.313
2012-08-16,02:45:00,0.313,1.49,1.41,0.0751,18,0.119,16.1,0.281
2012-08-16,03:45:00,0.25,1.4,1.32,0.0778,16.3,0.116,17.1,0.27
2012-08-16,04:45:00,0.209,1.31,1.24,0.0698,12.7,0.106,15.3,0.236
2012-08-16,05:45:00,0.192,1.26,1.2,0.0627,11,0.107,14.3,0.214
2012-08-16,06:45:00,0.17,1.21,1.14,0.0664,10.7,0.101,13.7,0.209
2012-08-16,07:45:00,0.123,1.14,1.08,0.0577,9.6,0.0969,14.1,0.201
2012-08-16,08:45:00,0.099,1.11,1.05,0.0573,10.4,0.0978,13.9,0.199
2012-08-16,09:45:00,0.114,1.06,1.01,0.0511,8.2,0.0943,13.2,0.177
2012-08-16,10:45:00,0.089,1.04,0.998,0.0416,8.65,0.0859,12.7,0.18
2012-08-16,11:45:00,0.135,0.95,0.91,0.04,19.7,0.126,12.5,0.283
2012-08-16,12:45:00,0.087,0.97,0.937,0.0333,16.3,0.0966,13.4,0.223
2012-08-16,13:45:00,2.64,1.26,1.16,0.104,50.3,0.437,17.8,0.767
2012-08-16,14:45:00,0.961,1.13,1.04,0.0904,16.9,0.237,14.1,0.398
2012-08-16,15:45:00,0.373,1.18,1.09,0.0879,14.4,0.166,13.9,0.287
2012-09-24,14:30:00,0.062,0.68,0.668,0.0119,187,0.236,14.7,0.862
2012-09-24,15:30:00,< .03,0.51,0.505,0.0048,165,0.307,13.4,0.879
2012-09-24,16:30:00,< .03,0.4,0.396,< .004,111,0.357,12.8,0.785
2012-09-24,17:30:00,< .03,0.33,0.326,< .004,83.4,0.34,12.4,0.752
2012-09-24,18:30:00,< .03,0.35,0.346,< .004,132,0.337,11,0.807
2012-09-24,19:30:00,< .03,0.23,0.226,< .004,151,0.386,8.69,0.798
2012-09-24,20:30:00,< .03,0.21,0.206,< .004,77,0.354,7.65,0.602
2012-09-24,21:30:00,< .03,0.24,0.236,< .004,61.3,0.363,7.41,0.537
2012-09-24,22:30:00,< .03,0.22,0.216,< .004,49.6,0.34,7.76,0.515
2012-09-24,23:30:00,< .03,0.25,0.246,< .004,44.9,0.344,8.36,0.5
2012-09-25,00:30:00,< .03,0.27,0.266,< .004,42,0.305,9.01,0.492
2012-09-25,01:30:00,< .03,0.32,0.316,< .004,33.6,0.312,10.1,0.47
2012-09-25,02:30:00,< .03,0.28,0.276,< .004,31.7,0.301,9.16,0.455
2012-09-25,03:30:00,< .03,0.32,0.316,< .004,28.2,0.297,10.6,0.436
2012-09-25,04:30:00,< .03,0.29,0.286,< .004,27.5,0.295,9.99,0.439
2012-09-25,05:30:00,< .03,0.28,0.276,< .004,30,0.3,10,0.444
2012-09-25,06:30:00,< .03,0.28,0.276,< .004,28.3,0.313,10.3,0.473
2012-09-25,07:30:00,< .03,0.32,0.316,< .004,27.1,0.304,10.6,0.455
2012-09-25,08:30:00,0.041,0.33,0.326,< .004,25.2,0.288,11.7,0.439
2012-09-25,09:30:00,< .03,0.33,0.326,< .004,26.3,0.277,11.2,0.424
2012-09-25,10:30:00,< .03,0.34,0.336,< .004,27.4,0.268,11.2,0.416
2012-09-25,11:30:00,< .03,0.35,0.346,< .004,21.7,0.256,11.7,0.396
2012-09-25,12:30:00,< .03,0.38,0.376,< .004,25.6,0.246,11.8,0.388
2012-09-25,13:30:00,< .03,0.38,0.376,< .004,22.4,0.238,12.1,0.383
2013-10-16,17:45:00,2.58,1.26,1.23,0.0311,81.4,0.61,12,1.09
2013-10-16,18:45:00,1.17,1.93,1.89,0.042,148,0.457,12.4,0.865
2013-10-16,19:45:00,0.715,2.04,2.01,0.0319,102,0.354,12.5,0.67
2013-10-16,20:45:00,0.6,2.11,2.08,0.0301,81.5,0.368,13.3,0.637
2013-10-16,21:45:00,0.41,1.97,1.94,0.0289,66.5,0.318,13.2,0.553
2013-10-16,23:45:00,0.227,1.88,1.85,0.0254,50,0.234,13,0.419
2013-10-17,02:45:00,0.144,1.78,1.76,0.0222,43.1,0.16,12.8,0.327
2013-10-17,05:45:00,0.111,1.68,1.66,0.0217,30.2,0.131,12.2,0.276
2013-10-17,08:45:00,0.046,1.4,1.38,0.0168,25.9,0.11,11.8,0.215
2013-10-17,11:45:00,0.035,1.33,1.31,0.0169,51.2,0.0966,11.1,0.269
2013-10-17,14:45:00,0.061,1.33,1.31,0.0176,32.4,0.103,10.7,0.205
2013-10-17,16:45:00,0.059,1.35,1.33,0.018,24.8,0.0905,10.3,0.189
2014-01-15,09:00:00,0.146,0.38,0.376,0.0041,76.8,0.146,8.54,0.394
2014-01-15,10:00:00,0.127,0.43,0.424,0.0062,32.2,0.142,8.79,0.286
2014-01-15,11:00:00,0.131,0.44,0.434,0.0058,20.1,0.136,9.41,0.241
2014-01-15,12:00:00,0.124,0.48,0.472,0.0079,18.5,0.136,9.51,0.239
2014-01-15,13:00:00,0.103,0.56,0.553,0.0071,25.8,0.127,9.11,0.233
2014-01-15,15:00:00,0.084,0.57,0.563,0.0074,13.8,0.111,9.93,0.199
2014-01-15,18:00:00,0.087,0.6,0.594,0.0058,9.95,0.096,9.48,0.167
2014-01-15,19:00:00,0.089,0.62,0.615,0.0053,13.5,0.0986,9.88,0.169
2014-01-28,03:00:00,0.129,0.34,0.336,< .004,43.5,0.0895,10.3,0.277
2014-01-28,04:00:00,0.243,0.22,0.216,< .004,99.3,0.144,9.44,0.439
2014-01-28,05:00:00,0.159,< .2,< .196,< .004,39.5,0.142,9.43,0.399
2014-01-28,06:00:00,0.145,0.22,0.216,< .004,45.5,0.141,9.62,0.311
2014-01-28,07:00:00,0.139,0.28,0.276,< .004,29.3,0.138,9.93,0.265
2014-01-28,08:00:00,0.123,0.28,0.276,< .004,33.8,0.128,9.6,0.258
2014-01-28,09:00:00,0.115,0.33,0.326,< .004,18.1,0.123,10.1,0.223
2014-01-28,10:00:00,0.114,0.35,0.346,< .004,14.8,0.118,10.6,0.202
2014-01-28,11:00:00,0.107,0.38,0.376,< .004,13.5,0.109,10.5,0.191
2014-01-28,12:00:00,0.102,0.35,0.346,< .004,12.1,0.103,10.4,0.182
2014-01-28,13:00:00,0.108,0.38,0.376,< .004,11.1,0.0996,10.3,0.176
2014-01-28,14:00:00,0.105,0.4,0.396,< .004,13.7,0.096,10.6,0.174
2014-02-05,14:00:00,0.123,0.47,0.464,0.0057,19.3,0.0615,9.47,0.14
2014-02-05,15:00:00,0.182,0.43,0.424,0.0061,38.7,0.076,9.41,0.215
2014-02-05,16:00:00,0.113,0.3,0.296,< .004,112,0.175,8.97,0.418
2014-02-05,17:00:00,0.063,< .2,< .196,< .004,99.2,0.197,9.35,0.407
2014-02-05,18:00:00,0.105,< .2,< .196,< .004,77,0.147,8.8,0.37
2014-02-05,19:00:00,0.098,< .2,< .196,< .004,101,0.105,8.33,0.411
2014-02-05,20:00:00,0.102,< .2,< .196,< .004,116,0.116,7.51,0.472
2014-02-05,21:00:00,0.099,< .2,< .196,< .004,89.2,0.126,7.63,0.411
2014-02-05,22:00:00,0.044,0.23,0.226,< .004,48,0.136,8.67,0.358
2014-02-05,23:00:00,0.08,0.28,0.276,< .004,40.1,0.136,9.17,0.341
2014-02-06,00:00:00,0.088,0.32,0.316,< .004,29.8,0.126,9.58,0.294
2014-02-06,01:00:00,0.1,0.35,0.346,< .004,22.4,0.12,9.97,0.282
2014-02-06,02:00:00,0.076,0.38,0.376,0.0042,21.1,0.113,9.82,0.259
2014-02-06,03:00:00,0.071,0.38,0.376,0.0042,17.2,0.108,10.2,0.234
2014-02-08,01:15:00,0.066,0.51,0.502,0.0077,65.7,0.0734,8.69,0.274
2014-02-08,03:15:00,0.09,< .2,< .196,< .004,119,0.115,7.95,0.5
2014-02-08,05:15:00,0.092,< .2,< .196,< .004,84.7,0.124,8.29,0.431
2014-02-08,07:15:00,0.087,0.24,0.236,< .004,52.1,0.13,8.78,0.371
2014-02-08,09:15:00,0.07,0.27,0.266,< .004,31.3,0.135,9.62,0.313
2014-02-08,11:15:00,0.07,0.33,0.326,< .004,24.2,0.118,10.4,0.268
2014-02-08,13:15:00,0.12,0.39,0.386,< .004,18.3,0.11,9.3,0.242
2014-02-08,15:15:00,0.127,0.39,0.386,< .004,16.3,0.104,9.42,0.226
2014-02-08,17:15:00,0.13,0.3,0.296,< .004,23.6,0.108,9.45,0.247
2014-02-08,19:15:00,0.157,0.24,0.236,< .004,41.2,0.113,9.29,0.309
2014-02-08,21:15:00,0.074,< .2,< .196,< .004,55.6,0.127,8.27,0.363
2014-02-08,23:15:00,0.072,0.21,0.206,< .004,53.7,0.131,8.42,0.35
2014-02-12,12:30:00,0.176,0.42,0.414,0.0056,65.3,0.12,9.25,0.336
2014-02-12,14:30:00,0.08,< .2,< .196,< .004,206,0.0915,6.45,0.623
2014-02-12,16:30:00,0.115,< .2,< .196,< .004,70.6,0.121,7.22,0.374
2014-02-12,18:30:00,0.084,0.22,0.216,< .004,49.8,0.152,7.6,0.307
2014-02-12,20:30:00,0.137,< .2,< .196,< .004,47.9,0.117,7.94,0.321
2014-02-12,22:30:00,0.101,< .2,< .196,< .004,188,0.151,6.01,0.532
2014-02-13,00:30:00,0.114,0.21,0.206,< .004,60.6,0.153,6.18,0.313
2014-02-13,02:30:00,0.126,0.28,0.276,< .004,30.8,0.141,7.21,0.26
2014-02-13,04:30:00,0.102,0.3,0.296,< .004,21.1,0.133,7.27,0.219
2014-02-13,06:30:00,0.1,0.4,0.396,< .004,15.1,0.126,7.99,0.21
2014-02-13,08:30:00,0.087,0.42,0.416,< .004,11,0.124,8.33,0.198
2014-02-13,10:30:00,0.174,0.41,0.406,0.0041,13.4,0.131,8.85,0.214
